Regional Weather Roundup
Issued by NWS Boston, MA

Current Version | Previous Version | Text Only | Print | Product List | Glossary Off
Versions: 1 2 3 4 5 6 7 8 9 10 11 12 13 14 15 16 17 18 19 20 21 22 23 24 25 26 27 28 29 30 31 32 33 34 35 36 37 38 39 40 41 42 43 44 45 46 47 48 49 50
000 ASUS41 KBOX 210910 RWRBOX REGIONAL WEATHER ROUNDUP NATIONAL WEATHER SERVICE BOSTON/NORTON MA 500 AM EDT THU JUN 21 2018 NOTE: "FAIR" INDICATES FEW OR NO CLOUDS BELOW 12,000 FEET WITH NO SIGNIFICANT WEATHER AND/OR OBSTRUCTIONS TO VISIBILITY. MAZALL-211000- EASTERN MASSACHUSETTS CITY SKY/WX TMP DP RH WIND PRES REMARKS BOSTON MOCLDY 68 58 70 SW3 29.74R BEVERLY FAIR 61 57 87 W5 29.73R LAWRENCE FAIR 62 55 77 S5 29.76R BEDFORD FAIR 55 54 96 CALM 29.73S BLUE HILL N/A 62 59 90 W10 29.75R NORWOOD MOCLDY 55 53 93 CALM 29.74S FOG MARSHFIELD FAIR 64 64 100 VRB3 29.74R PLYMOUTH FAIR 64 62 93 CALM 29.75S TAUNTON FAIR 66 63 90 MISG 29.74S NEW BEDFORD MOCLDY 66 65 96 SW6 29.74R $$ MAZALL-211000- CAPE COD AND THE ISLANDS CITY SKY/WX TMP DP RH WIND PRES REMARKS FALMOUTH MOCLDY 64 63 94 W9 29.77R HYANNIS FAIR 67 63 87 SW7 29.74S CHATHAM FAIR 66 63 90 SW3 29.76S PROVINCETOWN FAIR 60 59 96 SW6 29.75R NANTUCKET LGT RAIN 63 61 93 SW9 29.76S MARTHAS VNYRD LGT RAIN 66 64 93 W5 29.76R $$ MAZALL-211000- CENTRAL AND WESTERN MASSACHUSETTS CITY SKY/WX TMP DP RH WIND PRES REMARKS WORCESTER FAIR 58 55 90 W8 29.77R FITCHBURG FAIR 59 57 93 N6 29.76R ORANGE FOG 54 54 100 CALM 29.78S VSB 1/4 SPRINGFIELD FAIR 54 54 100 CALM 29.75R WESTFIELD FAIR 55 55 100 CALM 29.76R FOG NORTH ADAMS FOG 50 50 100 CALM 29.80R VSB 1/2 PITTSFIELD FOG 51 49 92 CALM 29.79R VSB 1/2 $$ RIZALL-211000- RHODE ISLAND CITY SKY/WX TMP DP RH WIND PRES REMARKS PROVIDENCE FAIR 68 64 87 W7 29.76R NEWPORT LGT RAIN 65 65 100 CALM 29.76S BLOCK ISLAND LGT RAIN 64 64 100 W7 29.78S SMITHFIELD FAIR 63 62 97 W3 29.77R WESTERLY RAIN 65 64 97 SW5 29.77S FOG $$ CTZALL-211000- CONNECTICUT CITY SKY/WX TMP DP RH WIND PRES REMARKS BRADLEY INTL MOCLDY 61 59 93 CALM 29.75S HARTFORD CLOUDY 68 62 81 S5 29.75R BRIDGEPORT LGT RAIN 65 64 97 E5 29.75F DANBURY CLOUDY 65 64 97 CALM 29.77S GROTON RAIN 63 61 93 S7 29.76R FOG NEW HAVEN CLOUDY 66 65 96 E3 29.75F CHESTER MOCLDY 64 64 100 S6 29.76F MERIDEN CLOUDY 66 64 93 CALM 29.75S WILLIMANTIC CLOUDY 63 61 93 CALM 29.76S OXFORD CLOUDY 64 63 96 CALM 29.78S $$ MEZ002-015-021-024-NHZ003-005-008-011-012-014-VTZ005-008-211000- NORTHERN NEW ENGLAND CITY SKY/WX TMP DP RH WIND PRES REMARKS PORTLAND ME FAIR 60 53 77 W7 29.71R BANGOR ME MOCLDY 61 57 87 NW6 29.71R CONCORD NH FAIR 56 52 86 CALM 29.74S MANCHESTER NH MOCLDY 60 53 77 CALM 29.73R NASHUA NH FAIR 55 53 93 CALM 29.75R PORTSMOUTH NH MOCLDY 61 53 75 SW3 29.71R JAFFREY NH FAIR 54 53 97 CALM 29.78R KEENE NH FAIR 51 50 96 S3 29.78R BURLINGTON VT CLOUDY 65 55 70 N9 29.79R MT. WASHINGTON FOG 43 43 100 NW41G51 N/A VSB 1/16WCI 31 $$ NYZ052-076-211000- EASTERN NEW YORK CITY SKY/WX TMP DP RH WIND PRES REMARKS ALBANY MOCLDY 55 51 86 CALM 29.78S NEW YORK CITY LGT RAIN 67 64 90 NE10 29.74F $$ ANZALL-211000- MARINE OBSERVATIONS STATION/POSITION TIME TEMP WIND PRES VSBY WAVE AIR SEA DIR/SP/G HT/PER (UTC) (F) (DEG/KT/KT) (MB) (MI) (FT/S) BOSTON BUOY 0850 63 63 220/ 6/ 8 1006.6R 1/ 6 BUZZARDS BAY 0800 64 250/ 14/ 15 1008.3F NANTUCKET SOUND 0850 66 65 240/ 12/ 14 1007.3S 1 MASS BAY-STELLWA 0804 60 60 1005.0F 1/ 8 ISLE OF SHOALS 0900 62 250/ 11/ 11 1006.1R S OF BLOCK IS 0843 62 N/A 2/ 7 $$ ......................KEY......................... SKY/WX - SKY CONDITION/PRESENT WEATHER TMP - TEMPERATURE IN FAHRENHEIT DWPT - DEWPOINT IN FAHRENHEIT RH - RELATIVE HUMIDITY IN PERCENT WIND - DIRECTION AND SPEED IN MPH PRES - MEAN SEA LEVEL PRESSURE IN INCHES OF HG WCI - WIND CHILL INDEX VSB - VISIBILITY IN MILES HX - HEAT INDEX TC - TEMPERATURE IN CELSIUS VRB - VARIABLE WIND DIRECTION N/A - NOT AVAILABLE

USA.gov is the U.S. government's official web portal to all federal, state and local government web resources and services.